Location: Bismarck
(46.7731°N, 100.8200°W)
Time: 14:04:00
(UTC-05:00)

Amateur Radio Satellites - All Passes

Search period start: 17 April 2014 13:34
Search period end: 18 April 2014 13:34
Location: Bismarck, 46.7731°N, 100.8200°W

Satellite Date Start Highest point End Downlink Frequencies (MHz)
Time Altitude Azimuth
HO-68 17 Apr 13:48:38 13:52:06 14° 316° (NW) 13:55:33 435.675 MHz FM
AO-27 17 Apr 13:57:31 14:02:01 31° 64° (ENE) 14:06:32 436.795 MHz FM
ITAMSAT 1 17 Apr 14:08:33 14:13:16 37° 66° (ENE) 14:18:00 435.822 SSB
KITSAT 1 17 Apr 14:10:04 14:17:46 49° 246° (WSW) 14:25:24 435.175 FM
FUNcube-1 17 Apr 14:10:44 14:11:50 11° 302° (WNW) 14:12:56 145.950 - 145.970 MHz USB
AO-7 17 Apr 14:15:20 14:18:21 13° 34° (NE) 14:21:23 29.400 - 29.500 MHz
Oscar 19 17 Apr 14:18:01 14:23:08 77° 73° (ENE) 14:28:20 437.125 CW, 437.150 USB
Oscar 16 17 Apr 14:25:53 14:31:02 86° 255° (WSW) 14:36:14 437.025 USB, Beacon 2401.1428
Saudisat 1A 17 Apr 14:27:03 14:30:52 27° 321° (NW) 14:34:43 436.775 MHz
TMSAT-1 17 Apr 14:28:37 14:31:34 15° 56° (NE) 14:34:32 436.925 FM
AO-Echo 17 Apr 14:37:56 14:43:01 52° 70° (ENE) 14:48:00 ?
Uribyol 2 17 Apr 14:57:01 15:02:11 84° 255° (WSW) 15:07:23 436.500 FM
Uosat F 17 Apr 14:59:02 15:00:12 11° 53° (NE) 15:01:22 435.120 FM
RS-15 17 Apr 15:15:36 15:25:56 44° 32° (NNE) 15:36:21 29.354 - 29.394 USB, Beacon 29.352 USB
Gurwin Techsat 1B 17 Apr 15:16:06 15:21:09 47° 69° (ENE) 15:26:15 435.225 FM
JAS-1B 17 Apr 15:34:43 15:41:45 37° 64° (ENE) 15:47:48 435.800 - 435.900 CW/SSB
OPAL 17 Apr 15:35:52 15:39:49 21° 94° (E) 15:43:45 ?
AO-27 17 Apr 15:36:33 15:41:25 40° 262° (W) 15:46:19 436.795 MHz FM
ITAMSAT 1 17 Apr 15:48:10 15:52:48 33° 264° (W) 15:57:28 435.822 SSB
Oscar 19 17 Apr 16:00:08 16:03:06 15° 272° (W) 16:06:05 437.125 CW, 437.150 USB
AO-7 17 Apr 16:01:24 16:08:58 42° 58° (ENE) 16:16:34 29.400 - 29.500 MHz
TMSAT-1 17 Apr 16:05:27 16:10:45 88° 76° (ENE) 16:16:05 436.925 FM
Oscar 16 17 Apr 16:09:16 16:11:10 12° 274° (W) 16:13:05 437.025 USB, Beacon 2401.1428
AO-Echo 17 Apr 16:17:55 16:22:03 23° 267° (W) 16:26:08 ?
ISS 17 Apr 16:24:16 16:25:40 12° 133° (SE) 16:27:04 145.800 FM
Oscar 10/S400 17 Apr 16:27:15 17:02:49 12° 275° (W) 17:48:23 145.825 - 145.975 CW/USB, Beacon 145.810 USB
Uosat F 17 Apr 16:33:04 16:38:03 65° 72° (ENE) 16:43:02 435.120 FM
SO-50 17 Apr 16:36:59 16:40:41 26° 115° (ESE) 16:44:24 436.795 FM
Uribyol 2 17 Apr 16:40:46 16:42:28 12° 274° (W) 16:44:11 436.500 FM
Gurwin Techsat 1B 17 Apr 16:56:57 17:01:21 26° 267° (W) 17:05:47 435.225 FM
OPAL 17 Apr 17:13:56 17:19:03 58° 292° (WNW) 17:24:10 ?
JAS-1B 17 Apr 17:24:18 17:32:15 52° 260° (W) 17:38:57 435.800 - 435.900 CW/SSB
RS-15 17 Apr 17:28:20 17:39:15 77° 239° (WSW) 17:50:24 29.354 - 29.394 USB, Beacon 29.352 USB
Hamsat 17 Apr 17:33:23 17:34:27 11° 58° (ENE) 17:35:31 145.90 MHz
TMSAT-1 17 Apr 17:48:53 17:51:25 13° 273° (W) 17:53:57 436.925 FM
AO-7 17 Apr 17:53:34 18:01:36 54° 258° (WSW) 18:09:41 29.400 - 29.500 MHz
ISS 17 Apr 17:58:33 18:01:53 70° 150° (SSE) 18:05:14 145.800 FM
Uosat F 17 Apr 18:13:59 18:17:18 18° 269° (W) 18:20:39 435.120 FM
SO-50 17 Apr 18:16:42 18:21:01 46° 314° (NW) 18:25:25 436.795 FM
OPAL 17 Apr 18:55:48 18:56:54 11° 311° (NW) 18:58:00 ?
Hamsat 17 Apr 19:05:32 19:09:44 88° 74° (ENE) 19:14:01 145.90 MHz
UOSAT-12 17 Apr 19:10:57 19:15:19 46° 120° (ESE) 19:19:47 437.025 FM, 437.400 FM
Saudisat 1A 17 Apr 19:31:56 19:35:13 20° 33° (NNE) 19:38:27 436.775 MHz
JAS-2 17 Apr 19:33:02 19:38:46 59° 71° (ENE) 19:44:00 435.800 - 435.900 CW/SSB, 435.910 FM
ISS 17 Apr 19:35:38 19:38:49 39° 350° (N) 19:42:01 145.800 FM
RS-15 17 Apr 19:42:36 19:49:42 20° 261° (W) 19:56:56 29.354 - 29.394 USB, Beacon 29.352 USB
STRAND 1 17 Apr 19:48:46 19:53:17 31° 95° (E) 19:57:45 ?
SO-50 17 Apr 20:00:33 20:02:44 13° 336° (NNW) 20:04:55 436.795 FM
SO-67 17 Apr 20:16:50 20:20:19 73° 258° (WSW) 20:23:50 435.3500 MHz FM
HO-68 17 Apr 20:43:20 20:49:37 35° 59° (ENE) 20:55:54 435.675 MHz FM
UOSAT-12 17 Apr 20:51:33 20:55:39 31° 320° (NW) 20:59:49 437.025 FM, 437.400 FM
Saudisat 1A 17 Apr 21:10:57 21:15:24 84° 234° (SW) 21:19:47 436.775 MHz
ISS 17 Apr 21:12:52 21:16:03 38° 10° (N) 21:19:14 145.800 FM
JAS-2 17 Apr 21:19:53 21:24:14 21° 267° (W) 21:28:19 435.800 - 435.900 CW/SSB, 435.910 FM
STRAND 1 17 Apr 21:27:51 21:32:32 38° 294° (WNW) 21:37:13 ?
FUNcube-1 17 Apr 21:57:49 21:59:36 13° 59° (ENE) 22:01:23 145.950 - 145.970 MHz USB
Oscar 11 17 Apr 22:10:39 22:14:46 47° 71° (ENE) 22:18:56 145.825 FM, Beacon 2401.500 USB
HO-68 17 Apr 22:30:03 22:37:02 56° 258° (WSW) 22:44:04 435.675 MHz FM
UOSAT-12 17 Apr 22:36:00 22:37:19 11° 343° (NNW) 22:38:38 437.025 FM, 437.400 FM
MaSat-1 17 Apr 22:43:11 22:45:38 24° 114° (ESE) 22:47:52 437.345 MHz
ISS 17 Apr 22:49:38 22:53:00 74° 210° (SSW) 22:56:21 145.800 FM
Saudisat 1A 17 Apr 22:53:09 22:54:15 11° 252° (WSW) 22:55:21 436.775 MHz
SO-50 17 Apr 23:25:26 23:28:05 15° 27° (NNE) 23:30:44 436.795 FM
FUNcube-1 17 Apr 23:31:15 23:35:28 77° 257° (WSW) 23:39:40 145.950 - 145.970 MHz USB
Oscar 11 17 Apr 23:48:11 23:51:14 19° 268° (W) 23:54:18 145.825 FM, Beacon 2401.500 USB
MaSat-1 18 Apr 00:22:30 00:24:05 14° 308° (NW) 00:25:37 437.345 MHz
ISS 18 Apr 00:27:38 00:29:15 13° 226° (SW) 00:30:53 145.800 FM
SO-50 18 Apr 01:05:04 01:09:38 56° 48° (NE) 01:14:15 436.795 FM
PCSat 18 Apr 01:09:02 01:13:02 22° 107° (ESE) 01:17:03 145.825 MHz
UOSAT-12 18 Apr 01:58:11 02:01:44 21° 33° (NNE) 02:05:16 437.025 FM, 437.400 FM
Sapphire 18 Apr 02:05:35 02:10:52 56° 117° (ESE) 02:16:10 437.095 MHz 1200 baud AX-25 AFSK
Oscar 10/S400 18 Apr 02:18:44 02:27:55 13° 121° (ESE) 02:40:55 145.825 - 145.975 CW/USB, Beacon 145.810 USB
Oscar 19 18 Apr 02:27:26 02:31:27 22° 92° (E) 02:35:26 437.125 CW, 437.150 USB
Oscar 16 18 Apr 02:35:08 02:39:33 27° 94° (E) 02:43:56 437.025 USB, Beacon 2401.1428
AO-Echo 18 Apr 02:44:35 02:46:26 12° 87° (E) 02:48:16 ?
SO-50 18 Apr 02:46:18 02:49:54 22° 246° (WSW) 02:53:31 436.795 FM
KITSAT 1 18 Apr 02:48:58 02:54:12 19° 101° (E) 02:59:26 435.175 FM
PCSat 18 Apr 02:50:34 02:55:57 66° 306° (NW) 03:01:23 145.825 MHz
OPAL 18 Apr 02:53:16 02:58:07 51° 67° (ENE) 03:03:04 ?
Uribyol 2 18 Apr 03:07:16 03:11:42 28° 94° (E) 03:16:06 436.500 FM
Gurwin Techsat 1B 18 Apr 03:30:42 03:33:40 15° 88° (E) 03:36:37 435.225 FM
UOSAT-12 18 Apr 03:37:47 03:42:32 90° 237° (WSW) 03:47:15 437.025 FM, 437.400 FM
AO-27 18 Apr 03:46:12 03:51:20 59° 101° (E) 03:56:26 436.795 MHz FM
Sapphire 18 Apr 03:49:52 03:54:37 30° 317° (NW) 03:59:23 437.095 MHz 1200 baud AX-25 AFSK
ITAMSAT 1 18 Apr 03:57:20 04:02:31 72° 103° (ESE) 04:07:41 435.822 SSB
Oscar 19 18 Apr 04:06:03 04:11:08 55° 290° (WNW) 04:16:11 437.125 CW, 437.150 USB
Oscar 16 18 Apr 04:14:09 04:19:04 44° 292° (WNW) 04:23:59 437.025 USB, Beacon 2401.1428
TMSAT-1 18 Apr 04:18:49 04:23:23 28° 94° (E) 04:27:54 436.925 FM
AO-Echo 18 Apr 04:21:04 04:25:56 84° 285° (WNW) 04:30:39 ?
OPAL 18 Apr 04:33:21 04:37:18 23° 265° (W) 04:41:19 ?
PCSat 18 Apr 04:36:53 04:40:26 17° 328° (NNW) 04:44:01 145.825 MHz
Uosat F 18 Apr 04:39:14 04:42:14 16° 90° (E) 04:45:14 435.120 FM
KITSAT 1 18 Apr 04:40:16 04:48:22 81° 122° (ESE) 04:56:32 435.175 FM
Uribyol 2 18 Apr 04:46:27 04:51:20 43° 292° (WNW) 04:56:11 436.500 FM
JAS-1B 18 Apr 05:06:13 05:11:23 34° 96° (E) 05:16:36 435.800 - 435.900 CW/SSB
Gurwin Techsat 1B 18 Apr 05:08:58 05:14:18 81° 286° (WNW) 05:19:36 435.225 FM
UOSAT-12 18 Apr 05:19:48 05:22:00 13° 252° (WSW) 05:24:11 437.025 FM, 437.400 FM
AO-27 18 Apr 05:26:32 05:30:28 22° 300° (WNW) 05:34:23 436.795 MHz FM
STRAND 1 18 Apr 05:33:51 05:34:16 10° 52° (NE) 05:34:41 ?
ITAMSAT 1 18 Apr 05:37:58 05:41:29 19° 302° (WNW) 05:44:59 435.822 SSB
Sapphire 18 Apr 05:38:44 05:39:55 11° 342° (NNW) 05:41:06 437.095 MHz 1200 baud AX-25 AFSK
AO-7 18 Apr 05:51:26 05:59:22 46° 100° (E) 06:07:16 29.400 - 29.500 MHz
RS-15 18 Apr 05:53:56 05:55:50 11° 92° (E) 05:57:43 29.354 - 29.394 USB, Beacon 29.352 USB
TMSAT-1 18 Apr 05:58:28 06:03:27 43° 292° (WNW) 06:08:26 436.925 FM
AO-Echo 18 Apr 06:01:54 06:03:55 13° 305° (NW) 06:05:55 ?
Uosat F 18 Apr 06:16:34 06:21:34 72° 288° (WNW) 06:26:32 435.120 FM
KITSAT 1 18 Apr 06:37:22 06:44:39 35° 325° (NW) 06:51:57 435.175 FM
Hamsat 18 Apr 06:50:05 06:52:18 14° 89° (E) 06:54:31 145.90 MHz
Gurwin Techsat 1B 18 Apr 06:50:46 06:53:27 14° 305° (NW) 06:56:08 435.225 FM
JAS-1B 18 Apr 06:56:59 07:02:11 36° 296° (WNW) 07:07:21 435.800 - 435.900 CW/SSB
MaSat-1 18 Apr 07:04:00 07:05:43 15° 52° (NE) 07:07:34 437.345 MHz
STRAND 1 18 Apr 07:07:25 07:12:27 60° 71° (ENE) 07:17:29 ?
AO-7 18 Apr 07:44:22 07:52:12 48° 300° (WNW) 08:00:02 29.400 - 29.500 MHz
AO-40 18 Apr 07:50:20 09:40:56 24° 206° (SSW) 13:29:06 Beacon 2401.320
RS-15 18 Apr 07:54:37 08:05:25 54° 114° (ESE) 08:15:53 29.354 - 29.394 USB, Beacon 29.352 USB
Uosat F 18 Apr 07:57:47 07:59:29 12° 307° (NW) 08:01:11 435.120 FM
PCSat 18 Apr 08:10:28 08:12:31 12° 22° (NNE) 08:14:35 145.825 MHz
JAS-2 18 Apr 08:22:59 08:27:56 38° 98° (E) 08:33:15 435.800 - 435.900 CW/SSB, 435.910 FM
Hamsat 18 Apr 08:24:25 08:28:44 66° 286° (WNW) 08:33:03 145.90 MHz
KITSAT 1 18 Apr 08:37:17 08:42:53 20° 354° (N) 08:48:29 435.175 FM
MaSat-1 18 Apr 08:41:34 08:44:12 32° 245° (WSW) 08:47:13 437.345 MHz
STRAND 1 18 Apr 08:48:23 08:52:03 20° 269° (W) 08:55:43 ?
Sapphire 18 Apr 09:07:54 09:11:54 20° 35° (NE) 09:15:53 437.095 MHz 1200 baud AX-25 AFSK
SO-67 18 Apr 09:11:40 09:15:12 88° 283° (WNW) 09:18:42 435.3500 MHz FM
AO-7 18 Apr 09:39:09 09:43:02 14° 323° (NW) 09:46:55 29.400 - 29.500 MHz
PCSat 18 Apr 09:52:35 09:57:36 36° 46° (NE) 10:02:36 145.825 MHz
HO-68 18 Apr 09:54:57 10:00:43 25° 92° (E) 10:06:27 435.675 MHz FM
RS-15 18 Apr 10:06:52 10:17:49 56° 319° (NW) 10:28:35 29.354 - 29.394 USB, Beacon 29.352 USB
JAS-2 18 Apr 10:08:21 10:13:02 33° 294° (WNW) 10:18:01 435.800 - 435.900 CW/SSB, 435.910 FM
KITSAT 1 18 Apr 10:35:01 10:41:34 26° 24° (NNE) 10:48:05 435.175 FM
Sapphire 18 Apr 10:50:42 10:56:10 83° 57° (ENE) 11:01:35 437.095 MHz 1200 baud AX-25 AFSK
FUNcube-1 18 Apr 11:18:34 11:21:17 16° 91° (E) 11:24:01 145.950 - 145.970 MHz USB
Saudisat 1A 18 Apr 11:22:51 11:24:44 13° 109° (ESE) 11:26:37 436.775 MHz
Oscar 11 18 Apr 11:31:21 11:35:41 65° 102° (ESE) 11:40:01 145.825 FM, Beacon 2401.500 USB
PCSat 18 Apr 11:36:00 11:41:07 43° 246° (WSW) 11:46:12 145.825 MHz
HO-68 18 Apr 11:41:53 11:49:02 71° 291° (WNW) 11:56:10 435.675 MHz FM
RS-15 18 Apr 12:23:41 12:33:08 31° 351° (N) 12:42:32 29.354 - 29.394 USB, Beacon 29.352 USB
KITSAT 1 18 Apr 12:30:32 12:38:39 66° 50° (NE) 12:46:40 435.175 FM
Sapphire 18 Apr 12:35:38 12:38:53 16° 255° (WSW) 12:42:07 437.095 MHz 1200 baud AX-25 AFSK
FUNcube-1 18 Apr 12:53:54 12:58:01 52° 288° (WNW) 13:02:12 145.950 - 145.970 MHz USB
Saudisat 1A 18 Apr 12:59:12 13:03:41 88° 307° (NW) 13:08:10 436.775 MHz
Oscar 11 18 Apr 13:08:49 13:11:24 16° 299° (WNW) 13:13:59 145.825 FM, Beacon 2401.500 USB
